Chamberlain, SD

3:25 PM CST on December 07, 2016 (GMT -0600)
Chamberlain

Weather History for K9V9 - January, 2013

Change the Weather History Date:

Wednesday, January 2, 2013

  Actual Average Record
Temperature  
Mean Temperature 26 °F -  
Max Temperature 32 °F 29 °F 66 °F (1998)
Min Temperature 21 °F 10 °F -6 °F (2011)
Degree Days  
Heating Degree Days 38    
Moisture  
Dew Point 23 °F    
Average Humidity 80    
Maximum Humidity 88    
Minimum Humidity 73    
Precipitation  
Precipitation 0.00 in - - ()
Sea Level Pressure  
Sea Level Pressure 30.13 in    
Wind  
Wind Speed 13 mph (NW)    
Max Wind Speed 20 mph    
Max Gust Speed 24 mph    
Averages and records for this station are not official NWS values.
T = Trace of Precipitation, MM = Missing Value Source: NWS Daily Summary

Daily Weather History Graph

Daily Weather History Graph

Search for Another Location

Airport or City:

Trip Planner

Search our weather history database for the weather conditions in past years. The results will help you decide how hot, cold, wet, or windy it might be!

Date:

Astronomy

Jan. 02, 2013 Rise Set
Actual Time 8:11 AM CST 5:11 PM CST
Civil Twilight 7:38 AM CST 5:44 PM CST
Nautical Twilight 7:02 AM CST 6:20 PM CST
Astronomical Twilight 6:27 AM CST 6:55 PM CST
Moon 10:57 PM CST (1/2) 10:43 AM CST (1/2)
Length of Visible Light 10h 06m
Length of Day
9h 00m
Waning Gibbous, 75% of the Moon is Illuminated
Jan 2
Waning Gibbous
Jan 4
Last Quarter
Jan 11
New
Jan 18
First Quarter
Jan 26
Full

Hourly Weather History & Observations

Time (CST) Temp. Windchill Dew Point Humidity Pressure Visibility Wind Dir Wind Speed Gust Speed Precip Events Conditions
12:52 AM 21.0 °F 11.4 °F 16.0 °F 81% 30.06 in - WNW 8.1 mph - N/A   Unknown
1:52 AM 26.1 °F 15.0 °F 21.9 °F 84% 30.04 in - WNW 12.7 mph - N/A   Unknown
2:52 AM 28.0 °F 17.0 °F 25.0 °F 88% 30.05 in - WNW 13.8 mph - N/A   Unknown
3:52 AM 28.9 °F 19.2 °F 25.0 °F 85% 30.05 in - WNW 11.5 mph - N/A   Unknown
4:52 AM 30.0 °F 19.5 °F 24.1 °F 79% 30.05 in - NW 13.8 mph - N/A   Unknown
5:52 AM 30.0 °F 20.0 °F 24.1 °F 79% 30.05 in - WNW 12.7 mph - N/A   Unknown
6:52 AM 30.9 °F 19.4 °F 24.1 °F 76% 30.06 in - WNW 17.3 mph - N/A   Unknown
7:52 AM 30.0 °F 19.1 °F 24.1 °F 79% 30.08 in - NW 15.0 mph - N/A   Unknown
8:52 AM 30.0 °F 20.5 °F 25.0 °F 82% 30.10 in - WNW 11.5 mph - N/A   Unknown
9:52 AM 30.0 °F 19.5 °F 25.0 °F 82% 30.11 in - WNW 13.8 mph - N/A   Unknown
10:52 AM 30.9 °F 19.8 °F 25.0 °F 79% 30.12 in - NW 16.1 mph - N/A   Unknown
11:52 AM 30.9 °F 19.1 °F 24.1 °F 76% 30.12 in - WNW 18.4 mph 21.9 mph N/A   Unknown
12:52 PM 32.0 °F 21.2 °F 24.1 °F 73% 30.11 in - NW 16.1 mph 24.2 mph N/A   Unknown
1:52 PM 30.9 °F 20.2 °F 25.0 °F 79% 30.10 in - NW 15.0 mph - N/A   Unknown
2:52 PM 32.0 °F 23.6 °F 25.0 °F 75% 30.11 in - NW 10.4 mph - N/A   Unknown
3:52 PM 30.0 °F 20.0 °F 25.0 °F 82% 30.13 in - NW 12.7 mph - N/A   Unknown
4:52 PM 30.0 °F 20.0 °F 24.1 °F 79% 30.15 in - WNW 12.7 mph - N/A   Unknown
5:52 PM 28.0 °F 14.9 °F 24.1 °F 85% 30.17 in - NW 19.6 mph - N/A   Unknown
6:52 PM 27.0 °F 14.7 °F 21.9 °F 81% 30.19 in - NW 16.1 mph - N/A   Unknown
7:52 PM 27.0 °F 16.1 °F 21.0 °F 78% 30.21 in - NNW 12.7 mph 20.7 mph N/A   Unknown
8:52 PM 27.0 °F 15.6 °F 21.0 °F 78% 30.25 in - NW 13.8 mph - N/A   Unknown
9:52 PM 27.0 °F 16.1 °F 21.0 °F 78% 30.27 in - NNW 12.7 mph - N/A   Unknown
10:52 PM 27.0 °F 17.3 °F 21.0 °F 78% 30.29 in - NW 10.4 mph - N/A   Unknown
11:52 PM 27.0 °F 17.3 °F 23.0 °F 85% 30.31 in - NW 10.4 mph - N/A   Unknown